7 * 24
多渠道服务支持
JILIN-01 GAOFEN 2A(吉林一号高分2A)是中国于北京时间2019年11月13日08时发射的商用高分辨率光学遥感卫星,隶属于吉林一号卫星星座。该卫星具备高分辨率对地观测能力,可支撑国土资源监测、土地测绘、智慧城市建设、农业估产、防灾减灾等多领域应用,推动了我国商业遥感产业发展,为全球用户提供优质遥感数据服务。
中国
(CN)
| 数据来源 | 国际轨道数据 |
| 星历时间: | 2026-06-12T14:13:36+0800 15小时前 查看轨道信息 |
| 半长轴: | 6826.664km |
| 偏心率: | 0.0007596 |
| 轨道倾角: | 97.497° |
| 近地点辐角 | 101.829° |
| 升交点赤经 | 246.934° |
| 平近点角 | 258.381° |
| 近地点: | 443.341km |
| 远地点: | 453.713km |
| 周期: | 93.556分钟 |
| 每日圈数: | 15.391823 |